Regional Weather Roundup
Issued by NWS

Home | Current Version | Previous Version | Graphics & Text | Print | Product List | Glossary On
Versions: 1 2 3 4 5 6 7 8 9 10 11 12 13 14 15 16 17 18 19 20 21 22 23 24 25 26 27 28 29 30 31 32 33 34 35 36 37 38 39 40 41 42 43 44 45
000
ASUS45 KCYS 251310
RWRWY

WYOMING REGIONAL WEATHER ROUNDUP
NATIONAL WEATHER SERVICE CHEYENNE WY
600 AM MST THU DEC 25 2014

NOTE:  "FAIR" INDICATES FEW OR NO CLOUDS BELOW 12,000 FEET
WITH NO SIGNIFICANT WEATHER AND/OR OBSTRUCTIONS TO VISIBILITY.

WYZ001-251400-
YELLOWSTONE NATIONAL PARK

CITY           SKY/WX    TMP DP  RH WIND       PRES   REMARKS
LK YELLOWSTONE   N/A     19  14  81 MISG      29.43R
W YELLOWSTONE  NOT AVBL

$$
WYZ002>013-054>058-071-098>099-251400-
NORTHERN WYOMING

CITY           SKY/WX    TMP DP  RH WIND       PRES   REMARKS
JACKSON        CLOUDY    28  28 100 CALM      29.36R VSB 1
CODY           CLOUDY    25  21  86 N21G32    29.58R WCI  10
GREYBULL       CLOUDY    31  25  78 NW20      29.50R WCI  19
WORLAND        LGT SNOW  28  26  92 S8        29.50R VSB 1   WCI  20
SHERIDAN       LGT SNOW  28  26  92 NW13      29.67R FOG     WCI  17
BUFFALO        LGT SNOW  25  24  96 N22G29    29.62R VSB 1   WCI  10
GILLETTE       LGT SNOW  28  25  88 N18       29.57R FOG     WCI  15
HULETT           N/A    N/A N/A N/A MISG        N/A
NEWCASTLE      CLOUDY    30  27  86 CALM      29.50R

$$
WYZ014>020-022>026-101>103-251400-
CENTRAL WYOMING

CITY           SKY/WX    TMP DP  RH WIND       PRES   REMARKS
BIG PINEY      CLOUDY    23  20  88 CALM      29.36R
PINEDALE       CLOUDY    27  27 100 SE7       29.37R WCI  19
DUBOIS         NOT AVBL
LANDER         LGT SNOW  26  24  92 NW12      29.44R VSB 3/4 WCI  16
RIVERTON       LGT SNOW  27  23  85 NE17      29.45R VSB 3/4 WCI  14
CASPER         LGT SNOW  27  24  89 N13       29.47R FOG     WCI  16
DOUGLAS        LGT SNOW  31  29  92 NW10      29.48R FOG     WCI  22

$$
WYZ021-027>030-104>119-251400-
SOUTHERN WYOMING

CITY           SKY/WX    TMP DP  RH WIND       PRES   REMARKS
EVANSTON       LGT SNOW  23  21  92 SW20      29.42R FOG     WCI   8
KEMMERER       FLURRIES  27  23  86 W20G26    29.39R WCI  13
FORT BRIDGER   CLOUDY    29  28  94 W18       29.41R WCI  17
ROCK SPRINGS   LGT SNOW  25  22  88 S3        29.41R FOG
DIXON          LGT SNOW  30  28  89 S7        29.50R WCI  24
RAWLINS        CLOUDY    29  22  75 SW20G26   29.43R WCI  16
SARATOGA       CLOUDY    32  25  74 SE13      29.44S WCI  22
LARAMIE        FAIR      30  20  66 SW6       29.41R WCI  24
CHEYENNE       CLOUDY    28  20  71 NE3       29.40R
TORRINGTON     CLOUDY    39  30  70 N16       29.42R WCI  30
PINE BLUFFS    CLOUDY    30  25  80 CALM      29.42R

$$


USA.gov is the U.S. government's official web portal to all federal, state and local government web resources and services.